Friday Harbor, WA

7:32 AM PST on February 19, 2017 (GMT -0800)
Friday Harbor

Weather History for KFHR - October, 2013

Change the Weather History Date:

Sunday, October 27, 2013

  Actual Average Record
Temperature  
Mean Temperature 52 °F -  
Max Temperature 57 °F 51 °F 61 °F (2006)
Min Temperature 46 °F 39 °F 33 °F (2011)
Degree Days  
Heating Degree Days 14    
Growing Degree Days 2 (Base 50)    
Moisture  
Dew Point 44 °F    
Average Humidity 81    
Maximum Humidity 97    
Minimum Humidity 37    
Precipitation  
Precipitation 0.03 in - - ()
Sea Level Pressure  
Sea Level Pressure 30.03 in    
Wind  
Wind Speed 5 mph (NNW)    
Max Wind Speed 21 mph    
Max Gust Speed 33 mph    
Visibility 9 miles    
Events Rain    
Averages and records for this station are not official NWS values.
T = Trace of Precipitation, MM = Missing Value Source: NWS Daily Summary

Daily Weather History Graph

Daily Weather History Graph

Search for Another Location

Airport or City:

Trip Planner

Search our weather history database for the weather conditions in past years. The results will help you decide how hot, cold, wet, or windy it might be!

Date:

Astronomy

Oct. 27, 2013 Rise Set
Actual Time 7:50 AM PDT 6:00 PM PDT
Civil Twilight 7:18 AM PDT 6:32 PM PDT
Nautical Twilight 6:41 AM PDT 7:09 PM PDT
Astronomical Twilight 6:05 AM PDT 7:45 PM PDT
Moon 12:21 AM PDT (10/27) 2:41 PM PDT (10/27)
Length of Visible Light 11h 14m
Length of Day
10h 09m
Last Quarter, 42% of the Moon is Illuminated
Oct 27
Last Quarter
Nov 3
New
Nov 9
First Quarter
Nov 17
Full
Nov 25
Last Quarter

Hourly Weather History & Observations

Time (PDT) Temp. Dew Point Humidity Pressure Visibility Wind Dir Wind Speed Gust Speed Precip Events Conditions
12:06 AM 48.2 °F 46.4 °F 93% 30.21 in 10.0 mi Calm Calm - N/A   Overcast
12:49 AM 48.2 °F 46.4 °F 93% 30.16 in 10.0 mi South 4.6 mph - N/A   Overcast
12:53 AM 48.9 °F 46.0 °F 90% 30.16 in 10.0 mi South 6.9 mph - N/A   Overcast
1:39 AM 48.2 °F 46.4 °F 93% 30.13 in 10.0 mi South 5.8 mph - N/A   Overcast
1:49 AM 48.2 °F 46.4 °F 93% 30.13 in 10.0 mi Calm Calm - N/A   Overcast
1:53 AM 48.9 °F 46.0 °F 90% 30.14 in 10.0 mi Calm Calm - N/A   Overcast
2:40 AM 48.2 °F 46.4 °F 93% 30.11 in 10.0 mi Calm Calm - N/A   Overcast
2:53 AM 48.9 °F 46.0 °F 90% 30.11 in 9.0 mi Calm Calm - N/A   Overcast
3:30 AM 48.2 °F 46.4 °F 93% 30.06 in 10.0 mi SSW 4.6 mph - N/A   Overcast
3:51 AM 48.2 °F 46.4 °F 93% 30.04 in 10.0 mi SSW 3.5 mph - N/A   Overcast
3:53 AM 48.9 °F 46.0 °F 90% 30.04 in 10.0 mi South 4.6 mph - N/A   Overcast
4:03 AM 48.2 °F 46.4 °F 93% 30.03 in 10.0 mi South 4.6 mph - N/A   Overcast
4:22 AM 48.2 °F 46.4 °F 93% 30.02 in 10.0 mi Calm Calm - N/A   Overcast
4:43 AM 48.2 °F 46.4 °F 93% 30.03 in 10.0 mi NNW 3.5 mph - N/A   Overcast
4:53 AM 48.9 °F 46.0 °F 90% 30.04 in 10.0 mi NNW 4.6 mph - N/A   Overcast
5:15 AM 48.2 °F 46.4 °F 93% 30.04 in 3.0 mi Calm Calm - 0.00 in Rain Light Rain
5:23 AM 48.2 °F 46.4 °F 93% 30.03 in 5.0 mi Calm Calm - 0.00 in Rain Light Rain
5:53 AM 46.0 °F 45.0 °F 96% 30.01 in 5.0 mi Calm Calm - 0.00 in   Mostly Cloudy
6:53 AM 46.9 °F 46.0 °F 97% 29.99 in 4.0 mi Calm Calm - 0.00 in Rain Light Rain
7:53 AM 46.9 °F 46.0 °F 97% 29.99 in 4.0 mi Calm Calm - 0.03 in Rain Light Rain
8:18 AM 48.2 °F 46.4 °F 93% 29.99 in 9.0 mi Calm Calm - 0.00 in   Overcast
8:49 AM 48.2 °F 46.4 °F 93% 29.99 in 10.0 mi North 10.4 mph 16.1 mph 0.00 in   Mostly Cloudy
8:53 AM 48.9 °F 46.9 °F 93% 29.99 in 10.0 mi North 9.2 mph 16.1 mph 0.00 in   Mostly Cloudy
9:00 AM 48.2 °F 46.4 °F 93% 29.99 in 10.0 mi North 9.2 mph 16.1 mph N/A   Scattered Clouds
9:53 AM 52.0 °F 46.9 °F 83% 29.99 in 10.0 mi Variable 5.8 mph - N/A   Clear
10:53 AM 53.1 °F 46.0 °F 77% 30.00 in 10.0 mi NNW 9.2 mph 18.4 mph N/A   Clear
11:53 AM 55.0 °F 45.0 °F 69% 30.00 in 10.0 mi North 9.2 mph 17.3 mph N/A   Clear
12:53 PM 54.0 °F 44.1 °F 69% 29.99 in 10.0 mi Variable 6.9 mph - N/A   Partly Cloudy
1:53 PM 55.9 °F 45.0 °F 67% 29.99 in 10.0 mi North 15.0 mph 24.2 mph N/A   Clear
2:53 PM 55.0 °F 44.1 °F 67% 29.98 in 10.0 mi North 12.7 mph 23.0 mph N/A   Clear
3:53 PM 55.9 °F 44.1 °F 64% 29.98 in 10.0 mi North 9.2 mph 18.4 mph N/A   Mostly Cloudy
4:53 PM 55.0 °F 44.1 °F 67% 29.99 in 10.0 mi North 8.1 mph 16.1 mph N/A   Scattered Clouds
5:53 PM 55.0 °F 44.1 °F 67% 29.99 in 10.0 mi Variable 5.8 mph - N/A   Scattered Clouds
6:53 PM 55.0 °F 43.0 °F 64% 29.98 in 10.0 mi NNW 8.1 mph - N/A   Partly Cloudy
7:53 PM 55.9 °F 41.0 °F 57% 30.01 in 10.0 mi North 11.5 mph 20.7 mph N/A   Mostly Cloudy
8:53 PM 55.0 °F 39.0 °F 55% 30.01 in 10.0 mi North 16.1 mph 25.3 mph N/A   Clear
9:53 PM 57.0 °F 34.0 °F 42% 30.01 in 10.0 mi NNE 16.1 mph 25.3 mph N/A   Scattered Clouds
10:53 PM 57.0 °F 32.0 °F 39% 30.01 in 10.0 mi North 18.4 mph 27.6 mph N/A   Clear
11:53 PM 57.0 °F 30.9 °F 37% 30.00 in 10.0 mi North 20.7 mph 33.4 mph N/A   Clear